Weather History for Laramie, WY

Change the Weather History Date:

Monday, November 7, 2011

  Actual Average Record
Temperature  
Mean Temperature 26 °F 33 °F  
Max Temperature 36 °F 46 °F 67 °F (1999)
Min Temperature 15 °F 21 °F -7 °F (1990)
Degree Days  
Heating Degree Days 39 32  
Month to date heating degree days 290 212  
Since 1 July heating degree days 1320 1455  
Cooling Degree Days 0 0  
Month to date cooling degree days 0 0  
Year to date cooling degree days 126 67  
Moisture  
Dew Point 16 °F    
Average Humidity 70    
Maximum Humidity 92    
Minimum Humidity 47    
Precipitation  
Precipitation T in 0.02 in 0.65 in (1970)
Month to date precipitation 0.20 0.15  
Year to date precipitation 10.15 10.21  
Sea Level Pressure  
Sea Level Pressure 30.05 in    
Wind  
Wind Speed 6 mph (SSE)    
Max Wind Speed 16 mph    
Max Gust Speed 18 mph    
Visibility 10 miles    
Events      
T = Trace of Precipitation, MM = Missing Value Source: NWS Daily Summary

Daily Weather History Graph

Daily Weather History Graph

Search for Another Location

Airport:

Trip Planner

Search our weather history database for the weather conditions in past years. The results will help you decide how hot, cold, wet, or windy it might be!

Date:

Astronomy

Nov. 07, 2011 Rise Set
Actual Time 6:41 AM MST 4:51 PM MST
Civil Twilight 6:11 AM MST 5:20 PM MST
Nautical Twilight 5:38 AM MST 5:53 PM MST
Astronomical Twilight 5:06 AM MST 6:25 PM MST
Moon 3:04 PM MST (11/7) 3:44 AM MST (11/7)
Length of Visible Light 11h 08m
Length of Day
10h 10m
Waxing Gibbous, 92% of the Moon is Illuminated
Nov 7
Waxing Gibbous
Nov 10
Full
Nov 18
Last Quarter
Nov 24
New
Dec 2
First Quarter

Hourly Weather History & Observations

Time (MST) Temp. Windchill Dew Point Humidity Pressure Visibility Wind Dir Wind Speed Gust Speed Precip Events Conditions
12:53 AM 23.0 °F 18.4 °F 12.9 °F 65% 30.04 in 10.0 mi East 3.5 mph - N/A   Mostly Cloudy
1:53 AM 19.0 °F 11.1 °F 12.0 °F 74% 30.06 in 10.0 mi SW 5.8 mph - N/A   Overcast
2:53 AM 21.9 °F 13.4 °F 14.0 °F 72% 30.03 in 10.0 mi SSE 6.9 mph - N/A   Overcast
3:53 AM 18.0 °F 8.7 °F 12.9 °F 81% 30.06 in 10.0 mi WSW 6.9 mph - N/A   Overcast
4:53 AM 17.1 °F 7.6 °F 12.9 °F 84% 30.09 in 10.0 mi West 6.9 mph - N/A   Overcast
5:53 AM 19.4 °F 12.8 °F 12.2 °F 74% 29.98 in 10.0 mi SSW 4.6 mph - N/A   Partly Cloudy
6:53 AM 18.0 °F 12.7 °F 12.9 °F 81% 30.10 in 10.0 mi SSW 3.5 mph - N/A   Overcast
7:53 AM 19.0 °F 11.1 °F 14.0 °F 81% 30.12 in 10.0 mi West 5.8 mph - N/A   Overcast
8:53 AM 27.0 °F 15.2 °F 15.1 °F 61% 30.08 in 10.0 mi SSE 15.0 mph - N/A   Overcast
9:53 AM 28.0 °F 21.7 °F 17.1 °F 63% 30.07 in 10.0 mi SE 5.8 mph - N/A   Mostly Cloudy
10:53 AM 30.0 °F 26.5 °F 15.1 °F 54% 30.07 in 10.0 mi ENE 3.5 mph - N/A   Overcast
11:53 AM 32.0 °F 28.7 °F 16.0 °F 52% 30.03 in 10.0 mi East 3.5 mph - N/A   Overcast
12:53 PM 34.0 °F 28.0 °F 17.1 °F 50% 29.97 in 10.0 mi North 6.9 mph - N/A   Partly Cloudy
1:53 PM 35.1 °F 31.0 °F 17.1 °F 48% 29.98 in 10.0 mi NNW 4.6 mph - N/A   Clear
2:53 PM 36.0 °F 31.1 °F 17.1 °F 46% 29.96 in 10.0 mi NNE 5.8 mph - N/A   Clear
3:53 PM 35.6 °F 32.8 °F 17.6 °F 48% 29.95 in 10.0 mi NE 3.5 mph - N/A   Mostly Cloudy
4:53 PM 30.9 °F 23.5 °F 19.9 °F 64% 30.05 in 10.0 mi ESE 8.1 mph - N/A   Overcast
5:53 PM 28.0 °F 20.8 °F 21.0 °F 75% 30.08 in 10.0 mi SE 6.9 mph - 0.00 in   Overcast
6:53 PM 24.8 °F 16.9 °F 19.4 °F 80% 30.01 in 10.0 mi SSE 6.9 mph - N/A   Partly Cloudy
7:53 PM 24.1 °F 17.0 °F 19.9 °F 84% 30.12 in 10.0 mi South 5.8 mph - N/A   Clear
8:53 PM 21.9 °F 12.5 °F 19.0 °F 89% 30.09 in 10.0 mi South 8.1 mph - N/A   Clear
9:53 PM 19.9 °F 13.4 °F 17.1 °F 89% 30.10 in 10.0 mi SW 4.6 mph - N/A   Clear
10:53 PM 19.9 °F 13.4 °F 18.0 °F 92% 30.08 in 10.0 mi WSW 4.6 mph - N/A   Clear
11:53 PM 19.0 °F 11.1 °F 17.1 °F 92% 30.07 in 10.0 mi South 5.8 mph - N/A   Overcast